{"data":{"norad_id":53143,"epoch":"2026-05-25T03:34:18.784992Z","epoch_age_seconds":72599,"freshness":"FRESH","line1":"1 53143U 22083M   26145.14882853 -.00000418  00000+0 -82027-5 0  9996","line2":"2 53143  53.2131 190.8808 0001402  89.0110 271.1043 15.08835858212760","mean_motion":15.08835858,"eccentricity":0.0001402,"inclination_deg":53.2131,"raan_deg":190.8808,"arg_perigee_deg":89.011,"mean_anomaly_deg":271.1043,"bstar":-8.2027e-6,"rev_number":21276,"period_min":95.437816669386,"perigee_km":538.7861608245,"apogee_km":540.72593803556,"semimajor_km":6917.89304943,"source":"CELESTRAK","updated_at":"2026-05-25T13:38:17.317943Z"}}